GW4575 Weather Reports


Display with metric or nautical units.
time (UTC)temp
F
wind
direction
speed
MPH
gust
MPH
rain 1hr
in
rain 24hr
in
rain mn
in
humidity
%
barometer
mb
20260505205131 36 244 9.0 19.0 0.00 0.01 0.01 64 1010.8
20260505204627 36 285 10.0 13.0 0.00 0.01 0.01 62 1010.6
20260505204125 37 295 12.0 17.0 0.00 0.01 0.01 63 1010.8
20260505203621 37 272 6.0 17.0 0.00 0.01 0.01 65 1010.7
20260505203119 37 265 9.0 13.0 0.00 0.01 0.01 63 1010.6
20260505202614 37 284 4.0 11.0 0.00 0.01 0.01 64 1010.5
20260505202111 36 290 7.0 14.0 0.00 0.01 0.01 64 1010.7
20260505201607 36 324 7.0 15.0 0.00 0.01 0.01 67 1010.5
20260505201105 36 276 8.0 16.0 0.00 0.01 0.01 64 1010.7
20260505200557 35 313 9.0 11.0 0.00 0.01 0.01 66 1010.5
20260505200054 36 336 5.0 9.0 0.00 0.01 0.01 67 1010.4
20260505195550 36 0 9.0 16.0 0.00 0.01 0.01 66 1010.4
20260505195048 36 271 7.0 17.0 0.00 0.01 0.01 67 1010.3
20260505194545 36 278 4.0 13.0 0.00 0.01 0.01 66 1010.2
20260505194040 36 275 4.0 11.0 0.00 0.01 0.01 66 1010.1
20260505193537 36 272 8.0 15.0 0.00 0.01 0.01 66 1010.0
20260505193035 37 333 7.0 13.0 0.00 0.01 0.01 64 1010.0
20260505192533 37 261 6.0 9.0 0.00 0.01 0.01 68 1009.9
20260505192030 36 301 4.0 13.0 0.00 0.01 0.01 68 1009.9
20260505191528 37 304 9.0 13.0 0.00 0.01 0.01 64 1009.9
20260505191026 36 295 7.0 13.0 0.00 0.01 0.01 66 1009.9
20260505190520 38 235 6.0 11.0 0.00 0.01 0.01 66 1009.8
20260505190016 38 258 5.0 14.0 0.00 0.01 0.01 65 1010.0
20260505185508 37 278 7.0 16.0 0.00 0.01 0.01 67 1009.7
20260505185004 37 293 5.0 15.0 0.00 0.01 0.01 69 1009.7
20260505184501 37 292 6.0 10.0 0.00 0.01 0.01 67 1009.8
20260505183957 37 282 6.0 9.0 0.00 0.01 0.01 69 1009.7
20260505183454 36 305 3.0 9.0 0.00 0.01 0.01 70 1009.5
20260505182951 35 313 4.0 13.0 0.00 0.01 0.01 71 1009.4
20260505182448 36 289 8.0 15.0 0.00 0.01 0.01 67 1009.5
20260505181944 37 250 7.0 18.0 0.00 0.01 0.01 67 1009.5
20260505181441 37 298 9.0 14.0 0.00 0.01 0.01 68 1009.4
20260505180938 37 271 4.0 13.0 0.00 0.01 0.01 70 1009.3
20260505180434 35 288 6.0 14.0 0.00 0.01 0.01 70 1009.3
20260505175931 35 266 7.0 11.0 0.00 0.01 0.01 70 1009.4
20260505175427 35 291 11.0 14.0 0.00 0.01 0.01 71 1009.6
20260505174923 34 294 7.0 16.0 0.00 0.01 0.01 72 1009.4
20260505174422 34 305 5.0 11.0 0.00 0.01 0.01 73 1009.5
20260505173917 34 264 4.0 11.0 0.00 0.01 0.01 74 1009.3
20260505173414 34 302 5.0 11.0 0.00 0.01 0.01 75 1009.4
20260505172911 35 285 10.0 13.0 0.00 0.01 0.01 74 1009.3
20260505172409 34 288 7.0 10.0 0.00 0.01 0.01 73 1009.1
20260505171908 33 313 9.0 17.0 0.07 0.01 0.01 73 1009.2
20260505171405 33 274 10.0 17.0 0.07 0.01 0.01 73 1009.3
20260505170856 33 300 7.0 13.0 0.00 0.00 0.00 74 1009.1
20260505170353 33 256 10.0 18.0 0.00 0.00 0.00 75 1009.0
20260505165848 33 276 9.0 11.0 0.00 0.00 0.00 76 1008.9
20260505165344 34 277 4.0 11.0 0.00 0.00 0.00 76 1009.0
20260505164840 34 286 7.0 11.0 0.00 0.00 0.00 77 1008.8
20260505164337 34 253 11.0 16.0 0.00 0.00 0.00 77 1008.9
20260505163835 34 257 2.0 9.0 0.00 0.00 0.00 80 1008.8
20260505163333 34 281 10.0 15.0 0.00 0.00 0.00 78 1008.8
20260505162831 34 324 6.0 11.0 0.00 0.00 0.00 81 1008.8
20260505162327 33 324 5.0 15.0 0.00 0.00 0.00 80 1008.6
20260505161825 33 312 7.0 11.0 0.00 0.00 0.00 80 1008.6
20260505161322 34 257 8.0 14.0 0.00 0.00 0.00 80 1008.5
20260505160819 34 256 6.0 13.0 0.00 0.00 0.00 83 1008.5
20260505160317 34 295 8.0 10.0 0.00 0.00 0.00 82 1008.6
20260505153255 33 270 6.0 9.0 0.00 0.00 0.00 88 1008.2
20260505152753 33 256 2.0 9.0 0.00 0.00 0.00 90 1008.2
20260505152249 33 299 5.0 9.0 0.00 0.00 0.00 90 1008.2
20260505151743 33 336 4.0 8.0 0.00 0.00 0.00 90 1007.9
20260505151241 34 313 8.0 11.0 0.00 0.00 0.00 88 1007.7
20260505150738 34 332 6.0 11.0 0.00 0.00 0.00 87 1007.7
20260505150235 33 307 11.0 15.0 0.00 0.00 0.00 87 1007.6
20260505140200 34 262 5.0 8.0 0.00 0.00 0.00 93 1006.7
20260505130124 37 260 3.0 8.0 0.00 0.00 0.00 78 1006.2
20260505124613 36 285 2.0 6.0 0.00 0.00 0.00 83 1005.9
20260505124110 36 315 3.0 9.0 0.00 0.00 0.00 83 1005.9
20260505123606 36 291 5.0 9.0 0.00 0.00 0.00 84 1005.8
20260505123103 36 269 3.0 6.0 0.00 0.00 0.00 85 1005.9
20260505122559 36 286 1.0 6.0 0.00 0.00 0.00 86 1005.7
20260505122056 35 295 3.0 7.0 0.00 0.00 0.00 86 1005.7
20260505121552 35 274 4.0 6.0 0.00 0.00 0.00 86 1005.7
20260505121049 35 320 4.0 6.0 0.00 0.00 0.00 86 1005.5
20260505120540 35 264 2.0 7.0 0.00 0.00 0.00 86 1005.5
20260505120036 35 294 2.0 6.0 0.00 0.00 0.00 87 1005.4
20260505115530 35 277 2.0 6.0 0.00 0.00 0.00 87 1005.4
20260505115028 35 291 2.0 6.0 0.00 0.00 0.00 89 1005.4
20260505114525 35 285 2.0 8.0 0.00 0.00 0.00 89 1005.4
20260505114021 35 270 6.0 7.0 0.00 0.00 0.00 90 1005.1
20260505113517 35 238 6.0 10.0 0.00 0.00 0.00 90 1005.3
20260505113014 35 289 0.0 6.0 0.00 0.00 0.00 91 1005.2
20260505112511 35 273 4.0 7.0 0.00 0.00 0.00 91 1005.3
20260505112009 35 289 3.0 4.0 0.00 0.00 0.00 91 1005.1
20260505111507 35 277 2.0 2.0 0.00 0.00 0.00 92 1004.9
20260505111004 35 288 4.0 7.0 0.00 0.00 0.00 92 1004.8
20260505110500 35 273 3.0 7.0 0.00 0.00 0.00 92 1004.8
20260505101932 34 274 4.0 6.0 0.00 0.00 0.00 94 1004.4
20260505101426 34 266 1.0 4.0 0.00 0.00 0.00 94 1004.2
20260505100922 33 294 2.0 4.0 0.00 0.00 0.00 94 1004.1
20260505100419 33 296 2.0 3.0 0.00 0.00 0.00 94 1004.0
20260505095915 34 271 0.0 1.0 0.00 0.00 0.00 93 1004.0
20260505095412 34 280 1.0 3.0 0.00 0.00 0.00 92 1004.1
20260505094908 34 285 1.0 3.0 0.00 0.00 0.00 91 1004.1
20260505094406 34 288 1.0 3.0 0.00 0.00 0.00 92 1004.0
20260505093901 34 273 2.0 2.0 0.00 0.00 0.00 91 1004.0
20260505093358 35 287 2.0 2.0 0.00 0.00 0.00 91 1003.9
20260505092856 35 265 1.0 3.0 0.00 0.00 0.00 91 1004.0
20260505092354 35 256 3.0 3.0 0.00 0.00 0.00 91 1004.0
20260505091850 34 276 1.0 6.0 0.00 0.00 0.00 92 1004.0
20260505091348 34 290 2.0 3.0 0.00 0.00 0.00 92 1004.1
20260505090846 34 313 0.0 2.0 0.00 0.00 0.00 92 1004.0
20260505090344 34 275 2.0 3.0 0.00 0.00 0.00 92 1003.8
20260505085841 35 285 3.0 3.0 0.00 0.00 0.00 91 1003.8
20260505085339 35 291 2.0 4.0 0.00 0.00 0.00 91 1004.0
20260505084837 35 291 1.0 1.0 0.00 0.00 0.00 90 1003.9
20260505084335 35 291 2.0 4.0 0.00 0.00 0.00 90 1003.9
20260505083832 35 250 1.0 2.0 0.00 0.00 0.00 90 1003.8
20260505083329 35 263 1.0 4.0 0.00 0.00 0.00 90 1003.9
20260505082826 35 290 2.0 4.0 0.00 0.00 0.00 89 1003.9
20260505082322 35 286 2.0 3.0 0.00 0.00 0.00 89 1004.1
20260505081819 35 266 1.0 4.0 0.00 0.00 0.00 88 1003.7
20260505081315 34 279 2.0 3.0 0.00 0.00 0.00 88 1003.8
20260505080812 34 278 2.0 3.0 0.00 0.00 0.00 88 1003.8
20260505080308 34 292 3.0 4.0 0.00 0.00 0.00 88 1003.8
20260505075803 34 306 2.0 4.0 0.00 0.00 0.00 88 1003.6
20260505075301 34 289 1.0 4.0 0.00 0.00 0.00 88 1003.8
20260505074758 34 290 4.0 6.0 0.00 0.00 0.00 88 1003.7
20260505074255 34 278 1.0 6.0 0.00 0.00 0.00 88 1003.6
20260505073753 34 269 3.0 3.0 0.00 0.00 0.00 88 1003.8
20260505073250 34 276 3.0 3.0 0.00 0.00 0.00 89 1003.7
20260505072747 34 269 1.0 3.0 0.00 0.00 0.00 88 1003.9
20260505072243 34 295 5.0 7.0 0.00 0.00 0.00 88 1003.8
20260505071739 34 263 1.0 3.0 0.00 0.00 0.00 87 1003.6
20260505071236 35 281 2.0 3.0 0.00 0.00 0.00 86 1003.7
20260505070733 35 291 1.0 7.0 0.00 0.00 0.00 86 1003.6
20260505070230 35 300 4.0 4.0 0.00 0.00 0.00 85 1003.8
20260505065725 35 295 4.0 4.0 0.00 0.00 0.00 85 1003.8
20260505065222 35 308 4.0 7.0 0.00 0.00 0.00 84 1003.7
20260505064719 35 309 4.0 6.0 0.00 0.00 0.00 83 1003.6
20260505064217 35 268 2.0 7.0 0.00 0.00 0.00 82 1003.5
20260505063714 35 297 2.0 6.0 0.00 0.00 0.00 83 1003.5
20260505063210 35 288 4.0 8.0 0.00 0.00 0.00 82 1003.4
20260505062707 36 289 2.0 10.0 0.00 0.00 0.00 82 1003.4
20260505062205 36 297 3.0 8.0 0.00 0.00 0.00 82 1003.3
20260505061701 36 298 6.0 10.0 0.00 0.00 0.00 81 1003.2
20260505061200 36 262 2.0 13.0 0.00 0.00 0.00 82 1003.2
20260505060657 36 314 4.0 7.0 0.00 0.00 0.00 84 1003.2
20260505060153 36 248 1.0 6.0 0.00 0.00 0.00 85 1003.2
20260505055648 36 223 2.0 3.0 0.00 0.00 0.00 87 1003.2
20260505055145 36 299 5.0 7.0 0.00 0.00 0.00 86 1003.0
20260505054643 36 298 3.0 9.0 0.00 0.00 0.00 87 1003.2
20260505054141 36 266 2.0 7.0 0.00 0.00 0.00 87 1003.1
20260505053638 36 263 2.0 11.0 0.00 0.00 0.00 85 1002.9
20260505053134 36 325 4.0 6.0 0.00 0.00 0.00 85 1002.9
20260505052632 37 335 4.0 9.0 0.00 0.00 0.00 86 1002.8
20260505052129 37 275 4.0 8.0 0.00 0.00 0.00 87 1002.8
20260505051625 37 322 4.0 13.0 0.00 0.00 0.00 87 1002.6
20260505051124 37 325 2.0 7.0 0.00 0.00 0.00 87 1002.5
20260505050621 37 281 5.0 10.0 0.00 0.00 0.00 85 1002.7
20260505050119 37 249 4.0 14.0 0.00 0.00 0.00 85 1002.5
20260505041549 38 257 9.0 11.0 0.00 0.00 0.00 83 1002.3
20260505041046 38 260 5.0 7.0 0.00 0.00 0.00 83 1002.2
20260505040544 38 276 3.0 9.0 0.00 0.00 0.00 82 1002.3
20260505040041 38 275 4.0 8.0 0.00 0.00 0.00 82 1002.1
20260505035537 38 279 4.0 7.0 0.00 0.08 0.08 82 1002.2
20260505035034 38 286 6.0 9.0 0.00 0.08 0.08 82 1002.4
20260505034530 38 286 3.0 8.0 0.00 0.08 0.08 82 1002.2
20260505034027 38 272 4.0 13.0 0.00 0.08 0.08 82 1002.1
20260505033524 38 331 4.0 7.0 0.00 0.08 0.08 83 1002.1
20260505033022 38 310 4.0 6.0 0.00 0.08 0.08 82 1002.1
20260505032520 38 293 4.0 6.0 0.00 0.08 0.08 82 1002.1
20260505032016 39 266 3.0 6.0 0.00 0.08 0.08 81 1001.9
20260505031513 39 314 6.0 10.0 0.00 0.08 0.08 80 1002.0
20260505031009 39 268 1.0 8.0 0.00 0.08 0.08 79 1002.1
20260505030506 39 312 4.0 10.0 0.00 0.08 0.08 79 1002.2
20260505030001 39 276 5.0 11.0 0.00 0.08 0.08 78 1001.9
20260505025458 39 300 6.0 17.0 0.00 0.08 0.08 77 1002.1
20260505024958 40 306 4.0 10.0 0.00 0.08 0.08 77 1001.8
20260505024454 40 268 12.0 22.0 0.00 0.08 0.08 75 1001.7
20260505023951 40 348 6.0 16.0 0.00 0.08 0.08 73 1001.6
20260505023448 41 301 11.0 15.0 0.00 0.08 0.08 72 1001.3
20260505022946 41 269 10.0 13.0 0.00 0.08 0.08 72 1001.5
20260505022443 41 243 6.0 15.0 0.00 0.08 0.08 71 1001.3
20260505021940 41 303 3.0 11.0 0.00 0.08 0.08 71 1001.1
20260505021436 41 136 6.0 14.0 0.00 0.08 0.08 71 1001.1
20260505020932 41 254 7.0 14.0 0.00 0.08 0.08 71 1001.1
20260505020428 41 222 6.0 17.0 0.00 0.08 0.08 71 1001.0
20260505015925 41 307 7.0 19.0 0.00 0.08 0.08 71 1000.8
20260505015422 41 276 11.0 17.0 0.00 0.08 0.08 71 1001.0
20260505014919 42 278 4.0 13.0 0.00 0.08 0.08 71 1000.8
20260505014416 42 7 5.0 11.0 0.00 0.08 0.08 70 1000.9
20260505013913 42 283 5.0 14.0 0.00 0.08 0.08 70 1000.5
20260505013410 42 239 3.0 11.0 0.00 0.08 0.08 71 1000.6
20260505012908 42 301 10.0 18.0 0.00 0.08 0.08 69 1000.6
20260505012406 42 289 9.0 17.0 0.00 0.08 0.08 68 1000.6
20260505011901 43 331 13.0 21.0 0.00 0.08 0.08 68 1000.6
20260505011358 43 284 7.0 11.0 0.00 0.08 0.08 68 1000.5
20260505010855 43 265 3.0 13.0 0.00 0.08 0.08 69 1000.6
20260505010350 43 272 9.0 14.0 0.00 0.08 0.08 68 1000.5
20260505005847 43 311 11.0 14.0 0.00 0.08 0.08 68 1000.2
20260505005344 43 279 6.0 14.0 0.00 0.08 0.08 68 1000.2
20260505004841 43 239 7.0 16.0 0.00 0.08 0.08 69 1000.3
20260505004337 43 251 6.0 16.0 0.00 0.08 0.08 69 1000.1
20260505003835 43 358 7.0 14.0 0.00 0.08 0.08 69 1000.3
20260505003332 43 301 9.0 16.0 0.00 0.08 0.08 69 1000.3
20260505002828 43 317 6.0 15.0 0.00 0.08 0.08 67 1000.2
20260505002325 44 287 13.0 22.0 0.00 0.08 0.08 66 1000.2
20260505001823 44 284 16.0 19.0 0.00 0.08 0.08 67 1000.1
20260505001320 44 259 8.0 14.0 0.00 0.08 0.08 68 1000.0
20260505000817 44 301 4.0 19.0 0.00 0.08 0.08 67 999.9
20260505000315 45 255 10.0 17.0 0.00 0.08 0.08 66 999.9
20260504235811 45 335 10.0 17.0 0.00 0.08 0.08 65 999.9
20260504235308 45 335 9.0 15.0 0.00 0.08 0.08 65 999.9
20260504234805 46 237 9.0 14.0 0.00 0.08 0.08 64 999.9
20260504234303 46 292 6.0 29.0 0.00 0.08 0.08 64 999.8
20260504233759 46 266 11.0 22.0 0.00 0.08 0.08 64 999.9
20260504233255 46 252 5.0 14.0 0.00 0.08 0.08 64 999.8
20260504232752 46 265 12.0 17.0 0.00 0.08 0.08 63 999.7
20260504232249 47 288 14.0 18.0 0.00 0.08 0.08 62 999.5
20260504231746 47 221 4.0 15.0 0.00 0.08 0.08 63 999.5
20260504231242 47 289 6.0 17.0 0.00 0.08 0.08 62 999.5
20260504230738 47 274 7.0 18.0 0.00 0.08 0.08 61 999.7
20260504230237 48 267 7.0 11.0 0.00 0.08 0.08 58 999.4
20260504225735 48 258 15.0 23.0 0.00 0.08 0.08 57 999.3
20260504225231 49 298 13.0 17.0 0.00 0.08 0.08 57 999.1
20260504224728 49 293 7.0 11.0 0.00 0.08 0.08 57 999.0
20260504224225 48 269 13.0 16.0 0.00 0.08 0.08 57 999.1
20260504223722 48 316 9.0 26.0 0.00 0.08 0.08 58 999.0
20260504223217 50 275 16.0 22.0 0.00 0.08 0.08 56 998.8
20260504222715 49 318 7.0 21.0 0.00 0.08 0.08 58 998.9
20260504222211 50 298 13.0 18.0 0.00 0.08 0.08 56 998.7
20260504221709 50 246 8.0 22.0 0.00 0.08 0.08 56 998.6
20260504221206 50 287 11.0 24.0 0.00 0.08 0.08 56 998.6
20260504220702 50 247 13.0 16.0 0.00 0.08 0.08 56 998.7
20260504220200 50 281 5.0 19.0 0.00 0.08 0.08 58 998.5
20260504215656 50 333 14.0 17.0 0.00 0.08 0.08 57 998.4
20260504215154 50 280 9.0 16.0 0.00 0.08 0.08 57 998.3
20260504214649 51 315 9.0 13.0 0.00 0.08 0.08 57 998.1
20260504214146 50 294 12.0 17.0 0.00 0.08 0.08 58 998.1
20260504213642 50 330 11.0 15.0 0.00 0.08 0.08 59 997.9
20260504213139 50 292 12.0 21.0 0.00 0.08 0.08 59 997.9
20260504212635 49 337 11.0 27.0 0.00 0.08 0.08 61 998.2
20260504212132 50 276 15.0 24.0 0.00 0.08 0.08 60 997.9
20260504211630 51 2 13.0 23.0 0.00 0.08 0.08 55 997.9
20260504211126 51 314 10.0 18.0 0.00 0.08 0.08 55 997.4
20260504210624 51 262 16.0 23.0 0.00 0.08 0.08 54 997.7
20260504210120 52 310 7.0 13.0 0.00 0.08 0.08 55 997.3
20260504205618 51 310 11.0 23.0 0.00 0.08 0.08 55 997.3